Location: Unspecified
(48.8656°N, 0.0000°E)
Time: 10:54:31
(UTC+00:00)

Vanguard 3 - Pass Details

Date: 21 June 2019
Orbit: 507 x 3264 km, 33.4° (Epoch: 18 July)

Event Time Altitude Azimuth Distance (km) Brightness Sun altitude
Rises 15:33:00 0° 255° (WSW) 4,203 11.7 41.6°
Reaches altitude 10° 15:38:11 10° 229° (SW) 2,634 10.7 40.8°
Maximum altitude 15:40:32 12° 206° (SSW) 2,218 10.0 40.4°
Drops below altitude 10° 15:42:34 10° 181° (S) 2,182 9.6 40.1°
Sets 15:45:57 0° 149° (SSE) 2,810 9.8 39.6°
